Location: Agnolo
(45.0000°N, 11.1500°E)
Time: 14:46:12
(UTC+00:00)

Daily predictions for brighter satellites

Satellite Brightness Start Highest point End
(mag) Time Altitude Azimuth Time Altitude Azimuth Time Altitude Azimuth
Cosmos 1603 4.0 16:31:44 10° NNW 16:37:27 79° WSW 16:43:11 10° SSE
NOAA 12 4.1 16:32:16 10° SSE 16:37:30 84° ENE 16:42:46 10° NNW
PAYLOAD B 4.5 16:33:33 10° S 16:39:02 78° WSW 16:44:35 10° NNW
Cosmos 1538 Rocket 4.4 16:35:11 10° N 16:40:01 38° ENE 16:44:49 10° SE
ATLAS 5 CENTAUR R/B 2.0 16:37:45 10° SW 16:41:42 56° NW 16:46:10 10° NNE
Cosmos 1777 Rocket 4.3 16:37:04 10° S 16:42:06 49° ESE 16:47:12 10° NNE
Cosmos 2279 Rocket 4.1 16:36:53 10° N 16:43:05 59° ENE 16:49:14 10° SSE
COSMO-SKYMED 1 3.5 16:40:20 10° NE 16:44:06 28° E 16:47:50 10° SSE
H-2A R/B 2.7 16:40:17 10° S 16:44:17 76° WSW 16:48:28 10° NNW
CZ-2D R/B 4.2 16:42:02 10° SE 16:45:16 26° ENE 16:48:29 10° NNE
Envisat 4.4 16:41:05 10° S 16:45:54 44° W 16:50:46 10° NNW
Lacrosse 5 2.4 16:44:12 10° NW 16:48:58 40° NNE 16:53:43 10° E
FengYun 1-2 T 4.2 16:47:04 10° SSE 16:52:37 83° ENE 16:58:16 10° NNW
SL-14 R/B 3.9 16:51:51 10° SSW 16:55:40 60° WNW 16:59:32 10° N
ISS -2.8 16:53:40 10° SSW 16:56:45 35° SE 16:59:24 13° ENE
Cosmos 1634 Rocket 4.4 16:51:51 10° NNW 16:58:04 70° W 17:04:18 10° S
Okean-O 3.7 16:55:59 10° ESE 16:59:31 24° ENE 17:03:05 10° NNE
Okean O Rocket 1.8 16:56:01 10° S 17:00:28 78° WSW 17:04:56 10° NNW
CORIOLIS 4.5 16:55:37 10° S 17:01:00 74° WSW 17:06:25 10° NNW
RESURS DK-1 4.4 17:01:06 10° WSW 17:04:32 25° NW 17:08:00 10° N
Cosmos 2263 Rocket 3.1 16:59:15 10° SW 17:04:44 49° WNW 17:10:15 10° NNE
Helios 1A Rocket 4.2 17:04:33 10° ESE 17:07:39 21° ENE 17:10:47 10° NNE
Meteor 2-5 Rocket 4.3 17:02:12 10° SSW 17:07:42 61° WNW 17:13:12 10° N
Aureole 2 Rocket 2.6 17:05:48 10° S 17:08:37 39° ESE 17:10:57 14° NE
Cosmos 1455 3.0 17:06:37 10° NNE 17:10:00 29° ENE 17:13:22 10° SE
Cosmos 1606 Rocket 4.1 17:09:51 10° NNW 17:14:12 65° W 17:18:34 10° S
Cosmos 1300 4.0 17:11:12 10° NNW 17:14:50 44° W 17:18:28 10° SSW
H-2A R/B 2.9 17:10:31 10° N 17:14:53 54° WNW 17:19:07 10° SSW
YAOGAN 1 3.3 17:11:43 10° SE 17:15:32 31° ENE 17:19:22 10° N
Cosmos 1892 Rocket 3.4 17:11:56 10° S 17:16:16 82° E 17:20:37 10° N
TELKOM 3 2.8 17:14:50 10° WSW 17:17:09 87° SSE 17:18:16 28° ENE
Cosmos 1689 Rocket 3.4 17:17:53 20° E 17:17:53 20° E 17:20:00 10° SSE
ARGOS 4.0 17:13:53 10° ESE 17:18:21 28° ENE 17:22:49 10° N
Cosmos 2228 4.2 17:17:37 10° NNW 17:21:43 46° W 17:25:49 10° SSW
Cosmos 1703 4.3 17:18:53 10° SE 17:22:00 24° E 17:22:57 21° ENE
ERS-2 2.5 17:20:31 12° NNE 17:23:39 41° E 17:27:05 10° S
Cosmos 1092 Rocket 4.5 17:19:36 10° SSE 17:25:10 36° E 17:30:43 10° NNE
BREEZE-M DEB (TANK) 4.2 17:22:39 10° WNW 17:25:30 27° SW 17:27:31 10° SSE
CZ-2C R/B 3.9 17:26:41 20° ENE 17:27:54 21° E 17:32:02 10° SE
IRS-1C Rocket 4.0 17:23:49 10° SSE 17:29:02 70° ENE 17:34:16 10° N
CZ-4B R/B 1.5 17:26:12 10° N 17:29:35 76° WNW 17:32:51 10° SSW
Cosmos 1812 Rocket 4.4 17:25:56 10° NNE 17:29:40 26° ENE 17:33:22 10° SE
BREEZE-M DEB (TANK) 2.9 17:28:04 10° WNW 17:30:06 28° N 17:30:27 26° NNE
SJ 16-02 1.4 17:26:34 10° S 17:30:53 57° ESE 17:34:30 14° NNE
SKYMED 2 3.5 17:27:54 10° NNE 17:32:17 89° E 17:36:37 10° SSW
OE (NEXTSAT) 4.2 17:30:58 10° W 17:34:25 82° N 17:35:46 35° ENE
ATLAS 2AS CENTAUR R/B 4.4 17:28:18 10° W 17:35:04 29° NNW 17:41:40 10° NNE
EXPRESS MD2 4.2 17:30:15 10° WNW 17:38:29 77° SSW 17:41:33 18° SE
Cosmos 1833 Rocket 4.0 17:34:46 10° N 17:38:50 20° NE 17:38:57 20° NE
Cosmos 158 Rocket 4.0 17:34:07 10° NNW 17:39:25 61° ENE 17:44:45 10° SSE
Cosmos 1844 3.7 17:34:12 10° S 17:39:44 61° ESE 17:44:20 16° NE
Nadezhda 4 Rocket 3.9 17:35:06 10° S 17:41:21 79° E 17:47:34 10° N
Cosmos 923 Rocket 4.0 17:36:28 10° NNW 17:41:45 58° ENE 17:46:58 10° SE
Cosmos 1939 Rocket 4.1 17:38:17 10° S 17:42:15 46° W 17:46:12 10° NNW
Cosmos 2082 Rocket 4.0 17:39:47 10° N 17:42:05 14° NNE 17:42:05 14° NNE
H-2A R/B 1.9 17:40:28 10° SSE 17:45:21 60° ENE 17:50:24 10° N
Cosmos 1898 Rocket 4.0 17:42:26 10° SSE 17:47:12 36° ESE 17:48:38 30° ENE
Cosmos 2058 Rocket 3.7 17:43:31 10° NNW 17:47:57 59° W 17:52:23 10° S
Cosmos 1680 Rocket 3.6 17:43:38 10° NNW 17:48:45 50° ENE 17:53:32 11° SE
CZ-2C R/B 3.3 17:43:43 10° S 17:49:00 76° WSW 17:54:37 10° NNW
CZ-4C R/B 4.3 17:45:22 10° WNW 17:49:18 19° NNW 17:53:45 10° NNE
Cosmos 1328 4.5 17:47:07 10° SSE 17:50:11 34° ESE 17:50:11 34° ESE
Meteor 2-13 Rocket 4.4 17:46:29 10° S 17:52:36 89° W 17:58:47 10° N
COSMOS 2455 3.3 17:47:01 10° SW 17:52:57 59° NW 17:58:24 13° NNE
PSLV R/B 3.8 17:49:11 12° NNE 17:53:04 78° ESE 17:57:17 10° S
SJ-11-01 4.2 17:50:59 10° SSE 17:55:38 68° ENE 18:00:19 10° N
CZ-4 R/B 1.4 17:52:27 10° SSE 17:56:34 83° WSW 18:00:38 10° NNW
MOS 1 Rocket 3.4 17:53:00 10° N 17:57:17 66° WNW 18:01:31 10° SSW
USA 234 4.0 17:55:48 26° NE 17:58:27 36° NNE 18:04:18 10° NW
Cosmos 1844 Rocket 2.8 17:52:51 10° SSW 17:58:32 80° WNW 18:03:17 15° NNE
Cosmos 1818 3.7 17:55:29 10° SW 18:00:55 76° NW 18:04:19 24° NNE
Okean 1-7 Rocket 4.5 17:57:35 10° SSW 18:02:00 51° WNW 18:06:29 10° N
Iridium 4 Rocket 3.6 17:58:23 10° N 18:04:00 60° E 18:09:09 10° SSE
CREW DRAGON DEMO-1 DEB 3.9 18:03:22 10° NW 18:05:17 36° NW 18:05:17 36° NW
SAR-Lupe-4 3.7 18:06:12 31° N 18:07:46 70° WNW 18:11:19 10° SSW
Cosmos 1626 Rocket 3.5 18:03:50 10° S 18:08:12 82° W 18:12:05 13° N
Cosmos 2278 Rocket 3.8 18:05:45 10° SSE 18:07:29 17° SE 18:07:29 17° SE
X-37B 1.2 18:07:08 10° WSW 18:09:46 53° SW 18:09:46 53° SW
Meteor 1-21 Rocket 4.3 18:06:29 10° SSW 18:11:59 76° W 18:17:34 10° N
Cosmos 44 3.2 18:12:08 10° SSW 18:16:51 69° ESE 18:17:27 62° ENE
NOSS 2-1 (E) 4.5 18:13:37 10° SSW 18:15:20 26° S 18:15:20 26° S
Meteor 2-19 Rocket 4.5 18:10:57 10° SSE 18:16:52 52° E 18:19:49 29° NNE
Cosmos 1553 Rocket 4.2 18:11:18 10° N 18:17:28 46° ENE 18:18:15 44° E
Cosmos 2026 Rocket 3.8 18:12:08 10° S 18:18:11 72° E 18:24:22 10° NNE
COSMO-SKYMED 1 4.4 18:16:27 10° N 18:20:13 30° WNW 18:23:59 10° SW
Cosmos 1937 Rocket 3.7 18:15:43 10° S 18:20:18 50° SE 18:20:18 50° SE
CSL-04 Rocket 3.5 18:15:47 10° SSE 18:21:11 84° ENE 18:26:42 10° NNW
Cosmos 2112 Rocket 3.9 18:21:18 10° NNW 18:26:35 89° ENE 18:28:48 36° SSE
ATLAS 5 CENTAUR R/B 4.1 18:25:09 10° NW 18:27:28 14° NNW 18:29:12 12° N
Lacrosse 5 2.6 18:27:11 10° WNW 18:32:04 51° SW 18:34:00 33° S
ISS -1.9 18:30:15 10° W 18:32:21 31° WNW 18:32:21 31° WNW
Okean-O 4.1 18:31:42 10° SSW 18:35:48 37° W 18:39:56 10° NNW
Meteor 2-15 4.3 18:34:32 10° N 18:40:44 81° E 18:46:53 10° S
Helios 1A Rocket 4.3 18:38:42 10° SSW 18:42:33 38° W 18:46:27 10° NNW
Cosmos 2344 4.3 18:35:34 10° NW 18:44:54 74° NE 18:51:01 35° SE
NOSS 3-1 (C) 4.0 18:41:10 10° NW 18:48:44 88° ENE 18:51:58 43° SE
ARGOS 4.1 18:53:17 10° S 18:58:23 45° W 19:03:31 10° NNW
COSMOS 2406 3.9 19:00:16 10° NNW 19:04:20 47° NNW 19:04:20 47° NNW
USA 229 DEB 3.7 18:58:53 10° NW 19:06:15 86° NE 19:06:38 81° ESE
USA 229 3.7 18:58:59 10° NW 19:06:21 85° NE 19:06:40 82° ESE
USA 267 3.3 19:07:16 64° S 19:07:16 64° S 19:13:00 10° SW
CZ-2C R/B 3.1 19:08:10 58° NW 19:08:33 60° WNW 19:14:03 10° SSW
SJ 16-02 3.9 19:06:58 10° W 19:09:51 17° NW 19:11:33 14° NNW
CZ-3B R/B 3.4 19:17:01 10° WNW 19:40:49 - SE 19:20:08 54° WSW
NOSS 3-1 (A) 4.0 19:14:18 10° NW 19:21:50 89° NNW 19:21:50 89° NNW
Cosmos 1833 Rocket 4.1 19:17:49 10° NNW 19:20:41 31° NNW 19:20:41 31° NNW
Cosmos 2082 Rocket 4.2 19:22:17 10° NNW 19:23:58 20° NNW 19:23:58 20° NNW
USA 234 4.1 19:43:09 43° NW 19:43:09 43° NW 19:47:24 10° NW
